Simultaneous Nadir Overpasses (SNOs) Predictions

Prediction of SNOs between METOP-B and NOAA-19 Satellite Orbit:

Table of predicted SNOs for the next 14.0 days since TLE Epoch: 4/12/2013
Index Date (METOP-B) Time (METOP-B) Lat,Lon (METOP-B) SZA (METOP-B ) Date (NOAA-19) Time (NOAA-19) Lat,Lon (NOAA-19) SZA (NOAA-19 ) Distance(km) Time Diff (sec)
1 04/14/2013 20:00:32 -73.64, 54.02 116.05 04/14/2013 19:59:21 -73.62, 52.42 115.99 50.16 71
2 04/14/2013 20:51:18 73.29,-139.44 63.62 04/14/2013 20:50:18 73.27,-139.53 63.62 3.46 60
3 04/14/2013 21:42:01 -73.27, 27.84 116.42 04/14/2013 21:41:18 -73.24, 27.78 116.43 2.99 43
4 04/14/2013 22:32:41 73.22,-164.93 63.53 04/14/2013 22:32:22 73.24,-164.98 63.56 3.25 19
5 04/14/2013 23:23:24 -73.19, 2.34 116.51 04/14/2013 23:23:22 -73.21, 2.34 116.49 2.10 2
6 04/15/2013 00:14:03 73.19, 169.68 63.48 04/15/2013 00:14:26 73.21, 169.58 63.50 3.66 23
7 04/15/2013 01:04:46 -73.17, -23.05 116.55 04/15/2013 01:05:26 -73.18, -23.11 116.55 2.31 40
8 04/15/2013 01:55:26 73.12, 144.18 63.39 04/15/2013 01:56:29 73.13, 144.24 63.39 2.16 63
9 04/15/2013 02:46:13 -72.85, -49.08 116.87 04/15/2013 02:47:24 -72.90, -48.01 116.88 35.54 71
10 04/24/2013 19:53:22 -73.95, 56.54 119.20 04/24/2013 19:52:15 -73.94, 53.49 119.09 93.80 67
11 04/24/2013 20:44:14 73.30,-137.63 60.19 04/24/2013 20:43:08 73.29,-137.72 60.19 3.32 66
12 04/24/2013 21:34:57 -73.28, 29.65 119.84 04/24/2013 21:34:06 -73.28, 29.57 119.84 2.71 51
13 04/24/2013 22:25:37 73.23,-163.13 60.10 04/24/2013 22:25:11 73.21,-163.06 60.08 3.30 26
14 04/24/2013 23:16:20 -73.21, 4.15 119.93 04/24/2013 23:16:09 -73.20, 4.23 119.95 3.12 11
15 04/25/2013 00:06:59 73.21, 171.48 60.06 04/25/2013 00:07:15 73.18, 171.49 60.02 3.30 16
16 04/25/2013 00:57:42 -73.19, -21.24 119.98 04/25/2013 00:58:13 -73.17, -21.22 120.01 2.60 31
17 04/25/2013 01:48:22 73.14, 145.98 59.97 04/25/2013 01:49:19 73.15, 146.05 59.97 2.46 57
18 04/25/2013 02:39:05 -73.12, -46.74 120.07 04/25/2013 02:40:17 -73.14, -46.67 120.06 3.11 72




NCC Satellite Simultaneous Nadir Overpasses (
